Flag for Norway Weather past 2 weeks in Horten, Norway

Now
64 °F

Sunny.


Feels Like: 64 °F
Forecast: 61 / 83 °F
Wind: 17 mph from East

Location: Oseberg

Current Time: Jul 25, 2014 at 1:46:49 PM

Latest Report: Jul 25, 2014 at 12:50 PM


Visibility: 10 mi

Pressure: 30.18 "Hg

Humidity: 94%

Dew point: 63 °F

Location of HortenLocation

Historic Weather in Horten — Graph

°F

Horten temperature yesterday

Maximum temperature yesterday: 64 °F (at 1:50 PM)
Minimum temperature yesterday: 57 °F (at 6:50 AM)
Average temperature yesterday: 60 °F

Past Weeks' High & Low Weather Summary

 TemperatureHumidityPressure
High72 °F (Jul 20, 2:50 PM)100% (Jul 10, 4:20 PM)30.36 "Hg (Jul 10, 4:20 PM)
Low52 °F (Jul 12, 4:50 AM)37% (Jul 13, 3:50 PM)29.65 "Hg (Jul 15, 9:20 AM)
Average61 °F84%30.03 "Hg
* Reported Jul 10 12:50 PM — Jul 25 12:50 PM, Horten, Weather by CustomWeather, © 2014

Note: Actual official high and low records may vary slightly from our data, if they occured in-between our weather recording intervals... More about our weather records

Advertising

Horten weather history for previous 24 hours

 ConditionsComfort  
Time TempWeatherWind HumidityBarometerVisibility
12:50 PM
Jul 25
64 °FSunny.17 mph94%30.18 "Hg10 mi
12:20 PM64 °FSunny.17 mph88%30.18 "Hg10 mi
11:50 AM63 °FSunny.18 mph94%30.18 "Hg10 mi
11:20 AM63 °FScattered clouds.18 mph94%30.18 "HgN/A
10:50 AM63 °FScattered clouds.22 mph94%30.18 "HgN/A
10:20 AM63 °FPassing clouds.25 mph94%30.18 "HgN/A
9:50 AM63 °FPartly sunny.23 mph94%30.18 "HgN/A
9:20 AM63 °FScattered clouds.21 mph94%30.18 "HgN/A
8:50 AM63 °FFog.16 mph88%30.18 "HgN/A
8:20 AM63 °FFog.17 mph88%30.18 "Hg6 mi
7:50 AM61 °FPartly sunny.16 mph94%30.18 "Hg3 mi
6:50 AM61 °FFog.15 mph94%30.18 "Hg2 mi
6:20 AM61 °FFog.16 mph94%30.18 "Hg2 mi
5:50 AM61 °FFog.15 mph94%30.18 "Hg1 mi
4:50 AM61 °FFog.14 mph94%30.18 "Hg1 mi
3:50 AM59 °FFog.17 mph100%30.18 "Hg1 mi
3:20 AM59 °FFog.15 mph100%30.18 "Hg0 mi
1:50 AM59 °FFog.20 mph100%30.18 "Hg0 mi
12:50 AM59 °FFog.18 mph100%30.21 "Hg0 mi
11:50 PM
Jul 24
59 °FFog.20 mph100%30.21 "Hg0 mi
10:50 PM59 °FFog.18 mph100%30.21 "Hg0 mi
9:50 PM59 °FFog.21 mph100%30.21 "Hg0 mi
8:50 PM59 °FFog.20 mph100%30.21 "Hg0 mi
7:50 PM61 °FFog.18 mph94%30.21 "Hg0 mi
6:50 PM61 °FFog.17 mph94%30.21 "Hg0 mi
5:50 PM61 °FFog.17 mph94%30.21 "Hg0 mi
5:20 PM61 °FFog.16 mph94%30.24 "Hg0 mi
4:50 PM61 °FFog.15 mph94%30.24 "Hg0 mi
4:20 PM61 °FFog.15 mph94%30.24 "Hg0 mi
3:20 PM63 °FFog.14 mph88%30.24 "Hg0 mi
2:50 PM63 °FFog.13 mphN/A30.24 "Hg0 mi
1:50 PM64 °FFog.13 mph83%30.27 "Hg0 mi
1:20 PM63 °FFog.14 mph88%30.27 "Hg0 mi
Weather by CustomWeather, © 2014

See weather overviewHow to use our weather pages